Location: New Canada
(47.1017°N, 68.5042°W)
Time: 21:59:23
(UTC+00:00)

RS-44 - Pass Details

Date: 02 April 2023
Orbit: 1175 x 1510 km, 82.5° (Epoch: 02 June)

Event Time Altitude Azimuth Distance (km) Brightness Sun altitude
Rises 07:55:20 0° 339° (NNW) 4,418 ? -22.3°
Reaches altitude 10° 07:59:22 10° 320° (NW) 3,501 ? -21.7°
Maximum altitude 08:04:04 17° 285° (WNW) 3,074 ? -21.0°
Enters shadow 08:04:22 16° 283° (WNW) 3,080 ? -21.0°
